Lamoni, IA

7:01 PM CST on December 02, 2016 (GMT -0600)
Lamoni Municipal

Weather History for KLWD - January, 2014

Change the Weather History Date:

Tuesday, January 7, 2014

  Actual Average Record
Temperature  
Mean Temperature 8 °F 24 °F  
Max Temperature 21 °F 33 °F 57 °F (2003)
Min Temperature -6 °F 15 °F -16 °F (1968)
Degree Days  
Heating Degree Days 57 41  
Month to date heating degree days 411 287  
Since 1 July heating degree days 2957 2716  
Cooling Degree Days 0 0  
Month to date cooling degree days 0 0  
Year to date cooling degree days 0 0  
Moisture  
Dew Point -1 °F    
Average Humidity 66    
Maximum Humidity 75    
Minimum Humidity 56    
Precipitation  
Precipitation 0.00 in 0.02 in 0.36 in (2016)
Month to date precipitation 0.23 0.16  
Sea Level Pressure  
Sea Level Pressure 30.25 in    
Wind  
Wind Speed 6 mph (SSW)    
Max Wind Speed 17 mph    
Max Gust Speed 21 mph    
Visibility 10 miles    
Events      
T = Trace of Precipitation, MM = Missing Value Source: NWS Daily Summary

Daily Weather History Graph

Daily Weather History Graph

Search for Another Location

Airport or City:

Trip Planner

Search our weather history database for the weather conditions in past years. The results will help you decide how hot, cold, wet, or windy it might be!

Date:

Astronomy

Jan. 07, 2014 Rise Set
Actual Time 7:39 AM CST 5:04 PM CST
Civil Twilight 7:08 AM CST 5:35 PM CST
Nautical Twilight 6:34 AM CST 6:09 PM CST
Astronomical Twilight 6:01 AM CST 6:42 PM CST
Moon 11:26 AM CST (1/7) No Moon Set
Length of Visible Light 10h 26m
Length of Day
9h 25m
Waxing Crescent, 46% of the Moon is Illuminated
Jan 7
Waxing Crescent
Jan 7
First Quarter
Jan 15
Full
Jan 23
Last Quarter
Jan 30
New

Hourly Weather History & Observations

Time (CST) Temp. Windchill Dew Point Humidity Pressure Visibility Wind Dir Wind Speed Gust Speed Precip Events Conditions
12:53 AM -5.1 °F -22.5 °F -13.0 °F 69% 30.38 in 10.0 mi SW 10.4 mph - N/A   Clear
1:53 AM -5.1 °F -22.5 °F -13.0 °F 69% 30.39 in 10.0 mi SW 10.4 mph - N/A   Clear
2:53 AM -5.1 °F -20.4 °F -11.9 °F 72% 30.36 in 10.0 mi SW 8.1 mph - N/A   Overcast
3:53 AM -4.0 °F -19.0 °F -11.9 °F 69% 30.32 in 10.0 mi South 8.1 mph - N/A   Clear
4:53 AM -5.1 °F -21.5 °F -11.9 °F 72% 30.32 in 10.0 mi SSW 9.2 mph - N/A   Scattered Clouds
5:53 AM -0.9 °F -16.4 °F -9.0 °F 69% 30.28 in 10.0 mi SSW 9.2 mph - N/A   Overcast
6:53 AM 1.9 °F -10.6 °F -6.0 °F 69% 30.26 in 10.0 mi South 6.9 mph - N/A   Mostly Cloudy
7:53 AM 1.9 °F -9.2 °F -6.0 °F 69% 30.25 in 10.0 mi SE 5.8 mph - N/A   Overcast
8:53 AM 3.0 °F -10.5 °F -4.0 °F 73% 30.22 in 10.0 mi SE 8.1 mph - N/A   Overcast
9:53 AM 7.0 °F -8.3 °F -2.0 °F 67% 30.22 in 10.0 mi South 11.5 mph - N/A   Overcast
10:53 AM 10.0 °F -3.7 °F -0.0 °F 64% 30.21 in 10.0 mi South 10.4 mph - N/A   Overcast
11:53 AM 12.9 °F 1.6 °F 3.0 °F 65% 30.17 in 10.0 mi SSW 8.1 mph - N/A   Overcast
12:53 PM 14.0 °F 5.1 °F 3.0 °F 62% 30.15 in 10.0 mi SSW 5.8 mph - N/A   Clear
1:53 PM 17.1 °F 7.6 °F 5.0 °F 59% 30.13 in 10.0 mi SSW 6.9 mph - N/A   Clear
2:53 PM 19.9 °F 13.4 °F 7.0 °F 57% 30.14 in 10.0 mi West 4.6 mph - N/A   Clear
3:53 PM 19.9 °F 13.4 °F 6.1 °F 55% 30.17 in 10.0 mi NW 4.6 mph - N/A   Clear
4:53 PM 17.1 °F 8.7 °F 5.0 °F 59% 30.19 in 10.0 mi NNW 5.8 mph - N/A   Clear
5:53 PM 14.0 °F 8.2 °F 3.9 °F 64% 30.21 in 10.0 mi NW 3.5 mph - N/A   Clear
6:53 PM 15.1 °F 9.4 °F 5.0 °F 64% 30.23 in 10.0 mi North 3.5 mph - N/A   Clear
7:53 PM 14.0 °F 6.5 °F 3.9 °F 64% 30.24 in 10.0 mi NNE 4.6 mph - N/A   Clear
8:53 PM 12.9 °F 3.8 °F 3.9 °F 67% 30.26 in 10.0 mi NNE 5.8 mph - N/A   Clear
9:53 PM 15.1 °F - 5.0 °F 64% 30.26 in 10.0 mi Calm Calm - N/A   Overcast
10:53 PM 15.1 °F 9.4 °F 7.0 °F 70% 30.27 in 10.0 mi ENE 3.5 mph - N/A   Overcast
11:53 PM 15.1 °F - 6.1 °F 68% 30.27 in 10.0 mi Calm Calm - N/A   Overcast